QPF
0.03 0.04 0.04 0.04 0.04 0.04 0.03 0.05 0.05 0.04 0.04 0.04 0.04 0.04 0.04 0.04 0.06 0.07 0.07 0.05 0.04 0.03 0.02 0.02 0.02 0.03 0.03 0.04 0.04 0.05 0.06 0.08 0.08 0.07 0.07 0.07 0.06 0.06
0.02 0.03 0.04 0.03 0.03 0.02 0.02 0.03 0.03 0.03 0.03 0.02 0.02 0.01 0.02 0.02 0.02 0.03 0.04 0.04 0.04 0.03 0.03 0.03 0.02 0.02 0.02 0.02 0.02 0.03 0.05 0.08 0.08 0.08 0.07 0.07 0.07 0.06
0.02 0.02 0.03 0.04 0.03 0.03 0.02 0.03 0.03 0.03 0.03 0.01 0.01 0.01 0.02 0.02 0.01 0.01 0.02 0.03 0.03 0.03 0.02 0.03 0.02 0.02 0.01 0.02 0.01 0.01 0.02 0.04 0.06 0.06 0.05 0.05 0.05 0.05
0.02 0.03 0.03 0.03 0.04 0.03 0.03 0.02 0.02 0.03 0.03 0.02 0.01 0.01 0.02 0.02 0.02 0.01 0.01 0.03 0.03 0.02 0.02 0.02 0.03 0.02 0.02 0.01 0.02 0.01 0.02 0.04 0.05 0.06 0.05 0.04 0.04 0.04
0.02 0.03 0.02 0.03 0.03 0.03 0.03 0.02 0.02 0.03 0.04 0.04 0.02 0.02 0.02 0.02 0.02 0.02 0.02 0.04 0.04 0.02 0.02 0.02 0.02 0.03 0.02 0.02 0.02 0.02 0.02 0.04 0.06 0.07 0.05 0.04 0.04 0.04
0.01 0.01 0.01 0.02 0.03 0.04 0.03 0.03 0.03 0.04 0.04 0.03 0.02 0.02 0.02 0.02 0.03 0.03 0.03 0.03 0.04 0.04 0.03 0.02 0.02 0.02 0.03 0.02 0.03 0.03 0.03 0.03 0.03 0.02 0.03 0.03 0.04 0.04
0.01 0.01 0.01 0.01 0.02 0.03 0.02 0.02 0.02 0.03 0.03 0.03 0.02 0.02 0.02 0.03 0.04 0.04 0.03 0.02 0.02 0.03 0.04 0.02 0.02 0.02 0.02 0.02 0.02 0.02 0.02 0.02 0.01 0.02 0.02 0.03 0.03 0.03
0.03 0.03 0.03 0.02 0.02 0.02 0.02 0.02 0.03 0.03 0.03 0.02 0.02 0.03 0.05 0.05 0.05 0.03 0.02 0.02 0.02 0.02 0.03 0.03 0.03 0.02 0.02 0.01 0.01 0.01 0.02 0.01 0.01 0.01 0.01 0.02 0.02 0.03
0.04 0.05 0.03 0.02 0.03 0.02 0.02 0.02 0.02 0.03 0.04 0.04 0.04 0.04 0.05 0.04 0.03 0.02 0.02 0.01 0.01 0.01 0.02 0.04 0.04 0.03 0.01 0.00 0.00 0.00 0.01 0.01 0.01 0.01 0.01 0.01 0.02 0.02
0.04 0.04 0.03 0.03 0.03 0.02 0.02 0.02 0.02 0.03 0.04 0.05 0.04 0.03 0.03 0.04 0.03 0.02 0.02 0.02 0.02 0.02 0.02 0.03 0.02 0.01 0.01 0.01 0.00 0.00 0.00 0.00 0.00 0.01 0.01 0.01 0.01 0.02
0.02 0.02 0.02 0.03 0.02 0.03 0.02 0.02 0.03 0.03 0.03 0.04 0.04 0.04 0.04 0.04 0.04 0.03 0.02 0.02 0.02 0.02 0.02 0.02 0.03 0.02 0.01 0.01 0.01 0.01 0.01 0.00 0.00 0.00 0.01 0.01 0.01 0.01
0.02 0.02 0.01 0.02 0.02 0.03 0.03 0.03 0.03 0.02 0.03 0.03 0.03 0.05 0.05 0.04 0.04 0.04 0.02 0.02 0.02 0.02 0.02 0.03 0.04 0.03 0.02 0.02 0.01 0.01 0.01 0.01 0.01 0.01 0.01 0.01 0.02 0.02
0.02 0.03 0.02 0.02 0.02 0.02 0.02 0.02 0.02 0.03 0.03 0.03 0.04 0.05 0.07 0.06 0.05 0.04 0.03 0.02 0.02 0.02 0.02 0.03 0.03 0.03 0.02 0.02 0.03 0.02 0.01 0.01 0.01 0.01 0.01 0.01 0.02 0.01
0.02 0.02 0.02 0.01 0.01 0.01 0.01 0.01 0.02 0.03 0.03 0.04 0.05 0.06 0.06 0.05 0.04 0.04 0.03 0.03 0.03 0.03 0.04 0.05 0.06 0.06 0.04 0.03 0.03 0.03 0.02 0.02 0.01 0.01 0.01 0.02 0.01 0.01
0.01 0.01 0.01 0.01 0.01 0.01 0.02 0.03 0.03 0.03 0.04 0.05 0.05 0.05 0.05 0.05 0.04 0.04 0.04 0.04 0.04 0.04 0.05 0.06 0.06 0.06 0.06 0.04 0.04 0.03 0.04 0.03 0.02 0.02 0.02 0.02 0.02 0.02
0.01 0.01 0.01 0.01 0.01 0.01 0.02 0.03 0.03 0.04 0.05 0.05 0.04 0.04 0.04 0.05 0.04 0.04 0.04 0.04 0.04 0.04 0.04 0.05 0.05 0.06 0.06 0.06 0.05 0.05 0.05 0.05 0.04 0.04 0.04 0.04 0.05 0.04
0.02 0.01 0.01 0.01 0.01 0.01 0.02 0.03 0.03 0.04 0.04 0.03 0.03 0.03 0.03 0.03 0.03 0.03 0.03 0.04 0.04 0.03 0.02 0.03 0.04 0.05 0.06 0.07 0.08 0.07 0.07 0.06 0.05 0.05 0.06 0.07 0.06 0.05
0.01 0.01 0.01 0.01 0.01 0.02 0.02 0.02 0.02 0.03 0.03 0.03 0.02 0.02 0.03 0.03 0.04 0.04 0.04 0.04 0.03 0.03 0.03 0.03 0.05 0.07 0.07 0.08 0.08 0.06 0.06 0.05 0.05 0.05 0.05 0.05 0.06 0.05
0.01 0.01 0.01 0.01 0.01 0.02 0.02 0.02 0.02 0.02 0.03 0.03 0.03 0.03 0.03 0.03 0.04 0.04 0.03 0.03 0.03 0.03 0.03 0.04 0.04 0.05 0.05 0.05 0.07 0.06 0.05 0.05 0.05 0.05 0.06 0.05 0.05 0.05
0.01 0.01 0.02 0.02 0.02 0.03 0.02 0.02 0.03 0.03 0.03 0.03 0.04 0.04 0.04 0.04 0.03 0.04 0.04 0.04 0.04 0.04 0.04 0.04 0.04 0.04 0.04 0.05 0.06 0.06 0.06 0.06 0.07 0.07 0.06 0.04 0.04 0.06
0.02 0.02 0.03 0.03 0.04 0.04 0.04 0.04 0.04 0.04 0.04 0.04 0.04 0.04 0.04 0.04 0.04 0.03 0.03 0.04 0.04 0.04 0.04 0.04 0.05 0.06 0.07 0.07 0.06 0.05 0.06 0.06 0.05 0.05 0.05 0.05 0.04 0.05
0.03 0.03 0.02 0.03 0.04 0.05 0.06 0.05 0.04 0.04 0.04 0.05 0.05 0.05 0.05 0.06 0.06 0.05 0.05 0.05 0.04 0.04 0.04 0.05 0.06 0.07 0.07 0.07 0.07 0.07 0.07 0.06 0.06 0.06 0.05 0.05 0.04 0.04
0.02 0.02 0.02 0.02 0.03 0.04 0.04 0.05 0.06 0.05 0.05 0.05 0.05 0.05 0.06 0.06 0.06 0.06 0.07 0.06 0.05 0.04 0.04 0.04 0.05 0.05 0.06 0.06 0.06 0.05 0.05 0.05 0.06 0.05 0.04 0.05 0.04 0.03
MSLP
1016.62 1016.68 1016.78 1016.87 1016.93 1016.90 1016.76 1016.46 1016.03 1015.46 1014.81 1014.10 1013.41 1012.77 1012.23 1011.80 1011.51 1011.34 1011.27 1011.28 1011.34 1011.43 1011.52 1011.58 1011.63 1011.64 1011.63 1011.59 1011.55 1011.50 1011.45 1011.41 1011.38 1011.37 1011.36 1011.36 1011.35 1011.35
1015.61 1015.60 1015.66 1015.76 1015.87 1015.93 1015.91 1015.77 1015.49 1015.08 1014.56 1013.97 1013.34 1012.72 1012.15 1011.67 1011.28 1011.00 1010.81 1010.70 1010.66 1010.66 1010.67 1010.70 1010.72 1010.73 1010.72 1010.71 1010.69 1010.67 1010.65 1010.63 1010.62 1010.60 1010.59 1010.58 1010.55 1010.52
1014.59 1014.52 1014.54 1014.63 1014.76 1014.89 1014.97 1014.96 1014.83 1014.58 1014.21 1013.73 1013.20 1012.63 1012.07 1011.55 1011.09 1010.71 1010.40 1010.17 1010.01 1009.90 1009.83 1009.78 1009.76 1009.75 1009.75 1009.75 1009.76 1009.77 1009.78 1009.79 1009.80 1009.79 1009.78 1009.75 1009.71 1009.66
1013.67 1013.54 1013.52 1013.59 1013.73 1013.89 1014.03 1014.12 1014.11 1013.99 1013.75 1013.41 1012.97 1012.48 1011.95 1011.43 1010.93 1010.47 1010.07 1009.72 1009.44 1009.22 1009.04 1008.92 1008.83 1008.78 1008.76 1008.76 1008.79 1008.82 1008.86 1008.89 1008.91 1008.92 1008.91 1008.88 1008.82 1008.76
1012.89 1012.74 1012.69 1012.73 1012.84 1013.01 1013.18 1013.32 1013.39 1013.37 1013.24 1013.01 1012.68 1012.26 1011.79 1011.29 1010.78 1010.28 1009.81 1009.38 1008.99 1008.66 1008.38 1008.16 1007.99 1007.88 1007.81 1007.79 1007.80 1007.84 1007.88 1007.93 1007.96 1007.98 1007.98 1007.95 1007.90 1007.82
1012.29 1012.13 1012.06 1012.07 1012.15 1012.29 1012.45 1012.60 1012.71 1012.74 1012.69 1012.55 1012.31 1011.98 1011.58 1011.13 1010.64 1010.14 1009.63 1009.14 1008.67 1008.25 1007.87 1007.55 1007.29 1007.09 1006.96 1006.88 1006.85 1006.86 1006.89 1006.93 1006.97 1007.00 1007.00 1006.98 1006.93 1006.86
1011.84 1011.70 1011.61 1011.60 1011.64 1011.74 1011.86 1011.98 1012.08 1012.14 1012.12 1012.04 1011.87 1011.62 1011.30 1010.91 1010.48 1010.00 1009.50 1008.98 1008.47 1007.98 1007.52 1007.11 1006.75 1006.45 1006.23 1006.06 1005.96 1005.91 1005.90 1005.92 1005.95 1005.98 1005.99 1005.98 1005.94 1005.88
1011.50 1011.38 1011.30 1011.26 1011.26 1011.31 1011.37 1011.44 1011.51 1011.54 1011.54 1011.48 1011.36 1011.18 1010.93 1010.62 1010.26 1009.84 1009.37 1008.87 1008.35 1007.82 1007.30 1006.81 1006.36 1005.96 1005.63 1005.37 1005.18 1005.05 1004.97 1004.94 1004.94 1004.95 1004.96 1004.97 1004.94 1004.90
1011.20 1011.11 1011.03 1010.98 1010.94 1010.93 1010.93 1010.94 1010.94 1010.94 1010.91 1010.86 1010.77 1010.64 1010.46 1010.23 1009.94 1009.59 1009.18 1008.73 1008.22 1007.69 1007.15 1006.60 1006.08 1005.60 1005.17 1004.80 1004.51 1004.29 1004.13 1004.04 1003.99 1003.97 1003.97 1003.97 1003.96 1003.93
1010.89 1010.82 1010.75 1010.67 1010.60 1010.54 1010.48 1010.42 1010.36 1010.30 1010.24 1010.18 1010.10 1009.99 1009.86 1009.70 1009.48 1009.21 1008.87 1008.48 1008.03 1007.53 1006.99 1006.43 1005.87 1005.33 1004.82 1004.37 1003.98 1003.67 1003.42 1003.25 1003.14 1003.08 1003.05 1003.04 1003.03 1003.00
1010.53 1010.46 1010.38 1010.29 1010.19 1010.08 1009.96 1009.85 1009.73 1009.62 1009.52 1009.42 1009.33 1009.24 1009.14 1009.01 1008.85 1008.65 1008.39 1008.07 1007.69 1007.25 1006.75 1006.22 1005.66 1005.10 1004.55 1004.04 1003.58 1003.19 1002.87 1002.62 1002.44 1002.32 1002.25 1002.20 1002.18 1002.14
1010.11 1010.02 1009.92 1009.81 1009.68 1009.54 1009.38 1009.22 1009.06 1008.90 1008.75 1008.62 1008.50 1008.40 1008.30 1008.19 1008.07 1007.92 1007.73 1007.49 1007.18 1006.82 1006.40 1005.92 1005.41 1004.87 1004.33 1003.80 1003.31 1002.86 1002.48 1002.16 1001.91 1001.73 1001.60 1001.51 1001.45 1001.39
1009.65 1009.52 1009.39 1009.24 1009.09 1008.92 1008.74 1008.54 1008.35 1008.16 1007.97 1007.80 1007.64 1007.51 1007.39 1007.28 1007.17 1007.05 1006.91 1006.73 1006.51 1006.24 1005.91 1005.53 1005.09 1004.62 1004.12 1003.62 1003.13 1002.66 1002.25 1001.88 1001.57 1001.33 1001.14 1000.99 1000.88 1000.78
1009.18 1008.99 1008.81 1008.63 1008.45 1008.26 1008.06 1007.86 1007.65 1007.43 1007.21 1007.00 1006.81 1006.63 1006.48 1006.34 1006.22 1006.11 1006.00 1005.87 1005.72 1005.54 1005.31 1005.03 1004.71 1004.33 1003.91 1003.47 1003.01 1002.56 1002.14 1001.75 1001.40 1001.11 1000.87 1000.67 1000.50 1000.35
1008.71 1008.45 1008.22 1008.00 1007.80 1007.60 1007.40 1007.20 1006.98 1006.76 1006.53 1006.29 1006.06 1005.84 1005.64 1005.47 1005.32 1005.20 1005.09 1005.00 1004.91 1004.80 1004.66 1004.49 1004.27 1004.00 1003.68 1003.32 1002.92 1002.52 1002.11 1001.72 1001.37 1001.04 1000.76 1000.52 1000.31 1000.12
1008.26 1007.94 1007.65 1007.40 1007.18 1006.97 1006.78 1006.59 1006.39 1006.18 1005.94 1005.70 1005.45 1005.20 1004.96 1004.74 1004.56 1004.41 1004.30 1004.21 1004.15 1004.10 1004.03 1003.94 1003.82 1003.65 1003.42 1003.15 1002.83 1002.48 1002.11 1001.75 1001.40 1001.08 1000.79 1000.53 1000.29 1000.07
1007.84 1007.45 1007.12 1006.83 1006.59 1006.39 1006.22 1006.05 1005.88 1005.69 1005.48 1005.25 1005.00 1004.74 1004.47 1004.23 1004.01 1003.83 1003.69 1003.60 1003.54 1003.51 1003.49 1003.46 1003.40 1003.29 1003.14 1002.94 1002.69 1002.40 1002.09 1001.77 1001.46 1001.16 1000.89 1000.64 1000.41 1000.19
1007.41 1006.98 1006.60 1006.29 1006.04 1005.85 1005.70 1005.56 1005.44 1005.30 1005.13 1004.94 1004.71 1004.46 1004.19 1003.94 1003.70 1003.50 1003.34 1003.22 1003.15 1003.11 1003.09 1003.07 1003.03 1002.96 1002.85 1002.69 1002.49 1002.25 1001.99 1001.72 1001.46 1001.22 1000.99 1000.79 1000.61 1000.43
1006.95 1006.49 1006.08 1005.75 1005.50 1005.32 1005.19 1005.10 1005.02 1004.94 1004.84 1004.70 1004.52 1004.31 1004.08 1003.84 1003.60 1003.38 1003.21 1003.06 1002.97 1002.90 1002.85 1002.81 1002.75 1002.67 1002.55 1002.40 1002.22 1002.01 1001.78 1001.57 1001.37 1001.19 1001.04 1000.92 1000.81 1000.70
1006.45 1005.97 1005.55 1005.21 1004.95 1004.78 1004.68 1004.62 1004.60 1004.58 1004.55 1004.48 1004.38 1004.23 1004.05 1003.85 1003.64 1003.43 1003.25 1003.09 1002.95 1002.84 1002.75 1002.65 1002.54 1002.42 1002.27 1002.09 1001.89 1001.68 1001.48 1001.30 1001.16 1001.05 1000.98 1000.96 1000.94 1000.93
1005.92 1005.42 1004.99 1004.64 1004.38 1004.21 1004.13 1004.11 1004.13 1004.16 1004.20 1004.21 1004.18 1004.12 1004.01 1003.87 1003.71 1003.54 1003.36 1003.19 1003.04 1002.88 1002.73 1002.57 1002.40 1002.21 1001.99 1001.76 1001.53 1001.30 1001.10 1000.94 1000.84 1000.79 1000.81 1000.87 1000.96 1001.06
1005.38 1004.88 1004.44 1004.08 1003.81 1003.63 1003.55 1003.54 1003.59 1003.67 1003.76 1003.84 1003.89 1003.90 1003.87 1003.81 1003.71 1003.59 1003.44 1003.29 1003.12 1002.94 1002.75 1002.53 1002.29 1002.03 1001.74 1001.45 1001.16 1000.90 1000.68 1000.52 1000.44 1000.43 1000.51 1000.64 1000.82 1001.01
1004.89 1004.39 1003.94 1003.56 1003.27 1003.08 1002.98 1002.96 1003.01 1003.10 1003.22 1003.35 1003.46 1003.54 1003.59 1003.60 1003.57 1003.50 1003.41 1003.29 1003.13 1002.95 1002.73 1002.48 1002.19 1001.87 1001.53 1001.18 1000.84 1000.53 1000.27 1000.10 1000.01 1000.01 1000.11 1000.29 1000.53 1000.78
Thickness
5752 5750 5749 5750 5748 5747 5745 5741 5735 5732 5735 5739 5740 5741 5738 5735 5732 5731 5729 5726 5724 5722 5721 5720 5719 5718 5718 5717 5717 5716 5716 5715 5714 5713 5712 5711 5711 5711
5748 5747 5745 5747 5746 5745 5743 5741 5737 5732 5730 5737 5736 5738 5734 5733 5730 5728 5727 5723 5721 5720 5718 5717 5716 5715 5715 5714 5714 5713 5713 5712 5711 5710 5709 5708 5707 5707
5746 5745 5742 5741 5741 5742 5741 5738 5736 5733 5728 5732 5735 5734 5729 5727 5726 5725 5724 5723 5722 5718 5716 5715 5714 5713 5712 5711 5711 5710 5710 5709 5708 5707 5706 5705 5704 5704
5743 5741 5739 5739 5736 5736 5735 5734 5733 5730 5727 5724 5727 5728 5725 5724 5722 5720 5722 5722 5720 5717 5714 5712 5711 5710 5709 5708 5707 5707 5706 5705 5705 5704 5702 5701 5700 5699
5740 5738 5736 5734 5732 5732 5730 5730 5729 5729 5726 5723 5723 5723 5723 5721 5718 5717 5718 5716 5717 5715 5712 5710 5708 5707 5706 5705 5704 5703 5702 5701 5701 5700 5698 5697 5696 5695
5737 5735 5733 5731 5728 5726 5726 5724 5723 5722 5720 5719 5719 5719 5717 5716 5712 5711 5711 5711 5712 5713 5711 5708 5706 5704 5703 5702 5701 5699 5698 5697 5696 5696 5695 5693 5692 5691
5732 5731 5730 5727 5723 5721 5721 5720 5718 5716 5716 5714 5713 5713 5712 5708 5707 5706 5705 5706 5707 5708 5706 5706 5705 5704 5703 5700 5698 5696 5694 5693 5692 5691 5690 5689 5688 5686
5728 5727 5726 5723 5719 5714 5712 5711 5710 5709 5709 5708 5708 5706 5704 5704 5701 5700 5699 5698 5697 5702 5699 5700 5702 5701 5701 5700 5696 5693 5690 5689 5687 5686 5685 5684 5683 5682
5724 5722 5722 5722 5716 5714 5710 5706 5705 5702 5701 5701 5701 5701 5700 5699 5695 5694 5692 5692 5691 5695 5692 5692 5695 5695 5696 5696 5692 5688 5686 5684 5683 5682 5681 5679 5678 5677
5719 5717 5714 5713 5712 5707 5706 5705 5704 5703 5700 5697 5697 5697 5696 5693 5690 5688 5687 5687 5687 5687 5686 5684 5687 5688 5691 5690 5687 5684 5682 5680 5679 5677 5676 5675 5673 5672
5714 5712 5709 5707 5702 5698 5697 5698 5698 5698 5696 5693 5691 5690 5687 5685 5682 5681 5680 5679 5680 5682 5682 5679 5680 5681 5683 5685 5683 5680 5678 5676 5674 5673 5671 5669 5667 5665
5709 5707 5702 5699 5694 5690 5690 5690 5690 5691 5692 5690 5686 5683 5682 5680 5676 5674 5675 5673 5673 5674 5677 5672 5673 5673 5674 5679 5679 5677 5674 5672 5670 5668 5666 5664 5662 5660
5703 5702 5700 5691 5686 5683 5681 5683 5683 5681 5683 5682 5682 5680 5678 5677 5675 5672 5670 5668 5668 5669 5671 5667 5666 5666 5667 5669 5671 5672 5671 5669 5666 5664 5661 5659 5657 5655
5693 5695 5692 5683 5679 5676 5676 5675 5674 5672 5675 5676 5675 5674 5673 5671 5670 5668 5665 5663 5662 5662 5662 5661 5659 5658 5659 5660 5663 5665 5665 5664 5662 5660 5659 5655 5652 5651
5686 5682 5678 5674 5672 5672 5670 5668 5667 5668 5669 5668 5668 5667 5667 5666 5663 5661 5659 5656 5655 5656 5656 5654 5653 5654 5654 5654 5656 5657 5657 5657 5657 5655 5654 5652 5650 5648
5676 5673 5669 5667 5666 5665 5664 5664 5663 5663 5663 5661 5661 5661 5660 5658 5656 5655 5652 5651 5650 5651 5651 5649 5648 5647 5648 5649 5650 5651 5652 5650 5651 5650 5648 5647 5645 5644
5667 5667 5668 5667 5664 5662 5661 5659 5658 5656 5654 5653 5653 5652 5651 5650 5649 5648 5645 5644 5643 5644 5646 5646 5645 5644 5644 5643 5644 5645 5646 5646 5645 5644 5640 5639 5639 5638
5657 5662 5661 5660 5658 5656 5653 5652 5650 5649 5648 5647 5645 5644 5643 5642 5641 5640 5639 5636 5636 5638 5639 5640 5639 5637 5637 5639 5637 5638 5638 5639 5638 5636 5634 5632 5632 5632
5651 5654 5654 5653 5651 5649 5647 5645 5643 5642 5640 5640 5639 5637 5637 5636 5635 5634 5633 5632 5631 5632 5633 5633 5631 5630 5629 5629 5633 5629 5630 5629 5629 5628 5627 5626 5626 5625
5647 5647 5646 5645 5643 5641 5640 5638 5635 5634 5634 5633 5632 5631 5630 5630 5629 5629 5629 5627 5627 5627 5626 5626 5625 5625 5623 5624 5624 5623 5621 5621 5621 5620 5620 5619 5618 5617
5640 5639 5639 5637 5636 5634 5632 5629 5628 5627 5626 5625 5625 5624 5624 5623 5624 5624 5624 5621 5619 5620 5620 5620 5620 5617 5617 5616 5616 5616 5615 5612 5611 5610 5611 5611 5611 5611
5632 5630 5630 5629 5628 5626 5624 5622 5621 5620 5619 5619 5619 5618 5618 5617 5617 5617 5617 5616 5615 5614 5614 5614 5613 5612 5611 5610 5610 5609 5607 5605 5603 5601 5601 5603 5605 5605
5623 5622 5622 5622 5620 5619 5618 5616 5615 5614 5613 5612 5612 5611 5611 5610 5610 5610 5609 5609 5608 5608 5607 5607 5607 5605 5605 5605 5604 5603 5600 5599 5598 5597 5596 5595 5595 5594